TimeMST,TemperatureF,Dew PointF,Humidity,Sea Level PressureIn,VisibilityMPH,Wind Direction,Wind SpeedMPH,Gust SpeedMPH,PrecipitationIn,Events,Conditions,WindDirDegrees,DateUTC
12:15 AM,55.4,28.4,36,30.14,10.0,Calm,Calm,-,N/A,,Clear,0,2012-10-06 07:15:00
12:35 AM,59.0,28.4,31,30.14,10.0,Calm,Calm,-,N/A,,Clear,0,2012-10-06 07:35:00
12:55 AM,59.0,28.4,31,30.14,10.0,Calm,Calm,-,N/A,,Clear,0,2012-10-06 07:55:00
1:15 AM,55.4,28.4,36,30.14,10.0,Calm,Calm,-,N/A,,Clear,0,2012-10-06 08:15:00
1:35 AM,55.4,28.4,36,30.15,10.0,Calm,Calm,-,N/A,,Clear,0,2012-10-06 08:35:00
1:55 AM,55.4,28.4,36,30.15,10.0,Calm,Calm,-,N/A,,Clear,0,2012-10-06 08:55:00
2:15 AM,55.4,28.4,36,30.14,10.0,Calm,Calm,-,N/A,,Clear,0,2012-10-06 09:15:00
2:35 AM,55.4,28.4,36,30.14,10.0,Calm,Calm,-,N/A,,Clear,0,2012-10-06 09:35:00
2:55 AM,55.4,28.4,36,30.13,10.0,Calm,Calm,-,N/A,,Clear,0,2012-10-06 09:55:00
3:15 AM,55.4,28.4,36,30.12,10.0,Calm,Calm,-,N/A,,Clear,0,2012-10-06 10:15:00
3:35 AM,53.6,28.4,38,30.13,10.0,Calm,Calm,-,N/A,,Clear,0,2012-10-06 10:35:00
3:55 AM,53.6,28.4,38,30.12,10.0,Calm,Calm,-,N/A,,Clear,0,2012-10-06 10:55:00
4:15 AM,55.4,28.4,36,30.12,10.0,Calm,Calm,-,N/A,,Clear,0,2012-10-06 11:15:00
4:35 AM,55.4,28.4,36,30.12,10.0,Calm,Calm,-,N/A,,Clear,0,2012-10-06 11:35:00
4:55 AM,53.6,28.4,38,30.12,10.0,WNW,3.5,-,N/A,,Clear,300,2012-10-06 11:55:00
5:15 AM,51.8,30.2,44,30.13,10.0,Calm,Calm,-,N/A,,Clear,0,2012-10-06 12:15:00
5:35 AM,53.6,28.4,38,30.12,10.0,NNE,4.6,-,N/A,,Clear,20,2012-10-06 12:35:00
5:55 AM,53.6,28.4,38,30.13,10.0,WNW,3.5,-,N/A,,Clear,300,2012-10-06 12:55:00
6:15 AM,51.8,30.2,44,30.13,10.0,WNW,3.5,-,N/A,,Clear,300,2012-10-06 13:15:00
6:35 AM,53.6,30.2,41,30.14,10.0,WNW,3.5,-,N/A,,Clear,290,2012-10-06 13:35:00
6:55 AM,53.6,30.2,41,30.14,10.0,Calm,Calm,-,N/A,,Clear,0,2012-10-06 13:55:00
7:15 AM,55.4,30.2,38,30.14,10.0,Calm,Calm,-,N/A,,Clear,0,2012-10-06 14:15:00
7:35 AM,55.4,32.0,41,30.14,10.0,Calm,Calm,-,N/A,,Partly Cloudy,0,2012-10-06 14:35:00
7:55 AM,55.4,32.0,41,30.14,10.0,Calm,Calm,-,N/A,,Partly Cloudy,0,2012-10-06 14:55:00
8:15 AM,57.2,32.0,38,30.15,10.0,Calm,Calm,-,N/A,,Partly Cloudy,0,2012-10-06 15:15:00
8:35 AM,60.8,32.0,34,30.15,10.0,Calm,Calm,-,N/A,,Scattered Clouds,0,2012-10-06 15:35:00
8:55 AM,64.4,30.2,28,30.15,10.0,Calm,Calm,-,N/A,,Partly Cloudy,0,2012-10-06 15:55:00
9:15 AM,66.2,32.0,28,30.15,8.0,Calm,Calm,-,N/A,,Partly Cloudy,0,2012-10-06 16:15:00
9:35 AM,68.0,35.6,30,30.15,10.0,Calm,Calm,-,N/A,,Partly Cloudy,0,2012-10-06 16:35:00
9:55 AM,69.8,33.8,27,30.15,10.0,Calm,Calm,-,N/A,,Scattered Clouds,0,2012-10-06 16:55:00
10:15 AM,71.6,35.6,27,30.14,10.0,WNW,9.2,-,N/A,,Scattered Clouds,290,2012-10-06 17:15:00
10:35 AM,71.6,35.6,27,30.14,10.0,WSW,5.8,-,N/A,,Scattered Clouds,240,2012-10-06 17:35:00
10:55 AM,71.6,35.6,27,30.13,9.0,WNW,8.1,-,N/A,,Scattered Clouds,290,2012-10-06 17:55:00
11:15 AM,73.4,33.8,23,30.13,10.0,West,8.1,-,N/A,,Partly Cloudy,260,2012-10-06 18:15:00
11:35 AM,73.4,33.8,23,30.12,10.0,WNW,8.1,-,N/A,,Scattered Clouds,290,2012-10-06 18:35:00
11:55 AM,73.4,32.0,22,30.11,10.0,SW,9.2,-,N/A,,Scattered Clouds,230,2012-10-06 18:55:00
12:15 PM,73.4,32.0,22,30.11,10.0,West,3.5,-,N/A,,Scattered Clouds,260,2012-10-06 19:15:00
12:35 PM,73.4,32.0,22,30.10,10.0,SW,3.5,-,N/A,,Scattered Clouds,230,2012-10-06 19:35:00
12:55 PM,73.4,32.0,22,30.09,10.0,West,10.4,-,N/A,,Scattered Clouds,270,2012-10-06 19:55:00
1:15 PM,73.4,32.0,22,30.09,10.0,West,12.7,19.6,N/A,,Mostly Cloudy,270,2012-10-06 20:15:00
1:35 PM,73.4,32.0,22,30.08,10.0,West,8.1,18.4,N/A,,Scattered Clouds,270,2012-10-06 20:35:00
1:55 PM,75.2,32.0,21,30.07,10.0,West,9.2,17.3,N/A,,Partly Cloudy,270,2012-10-06 20:55:00
2:15 PM,75.2,32.0,21,30.07,10.0,West,11.5,17.3,N/A,,Partly Cloudy,270,2012-10-06 21:15:00
2:35 PM,75.2,32.0,21,30.07,10.0,West,8.1,-,N/A,,Scattered Clouds,270,2012-10-06 21:35:00
2:55 PM,73.4,32.0,22,30.06,10.0,West,9.2,-,N/A,,Partly Cloudy,280,2012-10-06 21:55:00
3:15 PM,73.4,30.2,20,30.06,10.0,West,10.4,-,N/A,,Scattered Clouds,280,2012-10-06 22:15:00
3:35 PM,73.4,32.0,22,30.05,10.0,West,10.4,-,N/A,,Scattered Clouds,260,2012-10-06 22:35:00
4:15 PM,73.4,32.0,22,30.05,10.0,West,10.4,-,N/A,,Clear,280,2012-10-06 23:15:00
4:35 PM,71.6,32.0,23,30.05,10.0,West,11.5,-,N/A,,Partly Cloudy,270,2012-10-06 23:35:00
4:55 PM,71.6,33.8,25,30.05,10.0,WSW,9.2,-,N/A,,Clear,250,2012-10-06 23:55:00
5:15 PM,69.8,33.8,27,30.05,10.0,West,10.4,-,N/A,,Clear,260,2012-10-07 00:15:00
5:35 PM,69.8,33.8,27,30.06,9.0,West,8.1,-,N/A,,Clear,260,2012-10-07 00:35:00
5:55 PM,69.8,32.0,25,30.05,10.0,West,8.1,-,N/A,,Clear,260,2012-10-07 00:55:00
6:15 PM,68.0,32.0,26,30.06,10.0,West,6.9,-,N/A,,Clear,270,2012-10-07 01:15:00
6:35 PM,66.2,32.0,28,30.06,10.0,West,4.6,-,N/A,,Clear,260,2012-10-07 01:35:00
6:55 PM,64.4,32.0,30,30.06,10.0,West,5.8,-,N/A,,Clear,270,2012-10-07 01:55:00
7:15 PM,62.6,32.0,32,30.07,10.0,WNW,5.8,-,N/A,,Clear,290,2012-10-07 02:15:00
7:35 PM,62.6,32.0,32,30.07,10.0,South,3.5,-,N/A,,Clear,180,2012-10-07 02:35:00
7:55 PM,62.6,32.0,32,30.08,10.0,Calm,Calm,-,N/A,,Clear,0,2012-10-07 02:55:00
8:15 PM,62.6,32.0,32,30.08,10.0,Calm,Calm,-,N/A,,Clear,0,2012-10-07 03:15:00
8:35 PM,62.6,32.0,32,30.08,10.0,Calm,Calm,-,N/A,,Clear,0,2012-10-07 03:35:00
8:55 PM,60.8,32.0,34,30.08,10.0,Calm,Calm,-,N/A,,Clear,0,2012-10-07 03:55:00
9:15 PM,62.6,32.0,32,30.08,10.0,Calm,Calm,-,N/A,,Clear,0,2012-10-07 04:15:00
9:35 PM,59.0,32.0,36,30.08,10.0,North,3.5,-,N/A,,Clear,10,2012-10-07 04:35:00
9:55 PM,57.2,32.0,38,30.08,10.0,NW,3.5,-,N/A,,Clear,310,2012-10-07 04:55:00
10:15 PM,57.2,32.0,38,30.08,10.0,North,3.5,-,N/A,,Clear,350,2012-10-07 05:15:00
10:35 PM,57.2,32.0,38,30.08,10.0,Calm,Calm,-,N/A,,Clear,0,2012-10-07 05:35:00
10:55 PM,55.4,32.0,41,30.08,10.0,NW,3.5,-,N/A,,Clear,310,2012-10-07 05:55:00
11:15 PM,55.4,32.0,41,30.08,10.0,NW,3.5,-,N/A,,Clear,320,2012-10-07 06:15:00
11:35 PM,55.4,32.0,41,30.08,10.0,NW,3.5,-,N/A,,Clear,310,2012-10-07 06:35:00
11:55 PM,55.4,32.0,41,30.07,10.0,WNW,3.5,-,N/A,,Clear,300,2012-10-07 06:55:00